| time (UTC) | temp F | wind direction | speed MPH | gust MPH | rain 1hr in | rain 24hr in | rain mn in | humidity % | barometer mb |
| 20260505014039 | 72 | 167 | 3.0 | 8.0 | 0.00 | 0.00 | 0.00 | 35 | 1005.1 |
| 20260505013537 | 72 | 167 | 5.0 | 9.0 | 0.00 | 0.00 | 0.00 | 34 | 1005.1 |
| 20260505013047 | 73 | 162 | 5.0 | 9.0 | 0.00 | 0.00 | 0.00 | 34 | 1005.1 |
| 20260505012539 | 73 | 133 | 4.0 | 8.0 | 0.00 | 0.00 | 0.00 | 33 | 1005.1 |
| 20260505012041 | 73 | 173 | 5.0 | 7.0 | 0.00 | 0.00 | 0.00 | 33 | 1005.2 |
| 20260505011554 | 73 | 159 | 4.0 | 11.0 | 0.00 | 0.00 | 0.00 | 33 | 1005.2 |
| 20260505011041 | 74 | 150 | 4.0 | 12.0 | 0.00 | 0.00 | 0.00 | 32 | 1005.3 |
| 20260505010538 | 74 | 142 | 6.0 | 12.0 | 0.00 | 0.00 | 0.00 | 32 | 1005.3 |
| 20260505010101 | 74 | 85 | 6.0 | 12.0 | 0.00 | 0.00 | 0.00 | 33 | 1005.3 |
| 20260505005537 | 74 | 132 | 6.0 | 11.0 | 0.00 | 0.00 | 0.00 | 32 | 1005.3 |
| 20260505005038 | 74 | 194 | 5.0 | 14.0 | 0.00 | 0.00 | 0.00 | 32 | 1005.4 |
| 20260505004548 | 74 | 163 | 6.0 | 14.0 | 0.00 | 0.00 | 0.00 | 33 | 1005.4 |
| 20260505004037 | 74 | 189 | 7.0 | 14.0 | 0.00 | 0.00 | 0.00 | 32 | 1005.5 |
| 20260505003542 | 74 | 173 | 9.0 | 14.0 | 0.00 | 0.00 | 0.00 | 32 | 1005.6 |
| 20260505003050 | 74 | 140 | 6.0 | 17.0 | 0.00 | 0.00 | 0.00 | 33 | 1005.6 |
| 20260505002538 | 73 | 138 | 8.0 | 17.0 | 0.00 | 0.00 | 0.00 | 34 | 1005.7 |
| 20260505002039 | 73 | 163 | 7.0 | 15.0 | 0.00 | 0.00 | 0.00 | 34 | 1005.7 |
| 20260505001549 | 73 | 163 | 9.0 | 15.0 | 0.00 | 0.00 | 0.00 | 34 | 1005.7 |
| 20260505001037 | 73 | 165 | 7.0 | 12.0 | 0.00 | 0.00 | 0.00 | 35 | 1005.7 |
| 20260505000540 | 73 | 131 | 6.0 | 12.0 | 0.00 | 0.00 | 0.00 | 34 | 1005.7 |
| 20260505000055 | 73 | 186 | 7.0 | 22.0 | 0.00 | 0.00 | 0.00 | 33 | 1005.8 |
| 20260504235539 | 73 | 148 | 7.0 | 22.0 | 0.00 | 0.00 | 0.00 | 33 | 1005.7 |
| 20260504235039 | 74 | 194 | 10.0 | 21.0 | 0.00 | 0.00 | 0.00 | 32 | 1005.8 |
| 20260504234555 | 73 | 211 | 10.0 | 18.0 | 0.00 | 0.00 | 0.00 | 33 | 1005.8 |
| 20260504234037 | 73 | 203 | 10.0 | 19.0 | 0.00 | 0.00 | 0.00 | 32 | 1005.9 |
| 20260504233540 | 73 | 187 | 10.0 | 19.0 | 0.00 | 0.00 | 0.00 | 31 | 1005.8 |
| 20260504233054 | 73 | 178 | 12.0 | 19.0 | 0.00 | 0.00 | 0.00 | 31 | 1005.8 |
| 20260504232538 | 73 | 208 | 7.0 | 14.0 | 0.00 | 0.00 | 0.00 | 32 | 1005.7 |
| 20260504232038 | 73 | 219 | 6.0 | 14.0 | 0.00 | 0.00 | 0.00 | 33 | 1005.7 |
| 20260504231552 | 73 | 211 | 5.0 | 13.0 | 0.00 | 0.00 | 0.00 | 33 | 1005.8 |
| 20260504231038 | 73 | 205 | 7.0 | 14.0 | 0.00 | 0.00 | 0.00 | 32 | 1005.8 |
| 20260504230538 | 73 | 138 | 8.0 | 15.0 | 0.00 | 0.00 | 0.00 | 31 | 1005.8 |
| 20260504230052 | 73 | 202 | 8.0 | 20.0 | 0.00 | 0.00 | 0.00 | 30 | 1005.7 |
| 20260504225536 | 73 | 177 | 7.0 | 20.0 | 0.00 | 0.00 | 0.00 | 31 | 1005.8 |
| 20260504225041 | 73 | 217 | 11.0 | 20.0 | 0.00 | 0.00 | 0.00 | 33 | 1005.8 |
| 20260504224552 | 73 | 240 | 10.0 | 17.0 | 0.00 | 0.00 | 0.00 | 33 | 1005.8 |
| 20260504224040 | 73 | 194 | 8.0 | 18.0 | 0.00 | 0.00 | 0.00 | 34 | 1005.8 |
| 20260504223541 | 73 | 195 | 7.0 | 18.0 | 0.00 | 0.00 | 0.00 | 34 | 1005.8 |
| 20260504223049 | 73 | 184 | 10.0 | 20.0 | 0.00 | 0.00 | 0.00 | 33 | 1005.8 |
| 20260504222537 | 73 | 193 | 11.0 | 20.0 | 0.00 | 0.00 | 0.00 | 34 | 1005.8 |
| 20260504222039 | 74 | 235 | 12.0 | 23.0 | 0.00 | 0.00 | 0.00 | 32 | 1005.8 |
| 20260504221548 | 75 | 182 | 10.0 | 23.0 | 0.00 | 0.00 | 0.00 | 31 | 1005.8 |
| 20260504221038 | 76 | 202 | 11.0 | 23.0 | 0.00 | 0.00 | 0.00 | 29 | 1005.8 |
| 20260504220538 | 77 | 252 | 9.0 | 15.0 | 0.00 | 0.00 | 0.00 | 26 | 1005.8 |
| 20260504220111 | 76 | 240 | 6.0 | 13.0 | 0.00 | 0.00 | 0.00 | 26 | 1005.8 |
| 20260504215537 | 76 | 207 | 5.0 | 13.0 | 0.00 | 0.00 | 0.00 | 26 | 1005.9 |
| 20260504215036 | 76 | 228 | 8.0 | 13.0 | 0.00 | 0.00 | 0.00 | 27 | 1005.9 |
| 20260504214553 | 76 | 233 | 6.0 | 12.0 | 0.00 | 0.00 | 0.00 | 27 | 1006.0 |
| 20260504214038 | 77 | 252 | 4.0 | 11.0 | 0.00 | 0.00 | 0.00 | 27 | 1006.1 |
| 20260504213538 | 77 | 288 | 4.0 | 11.0 | 0.00 | 0.00 | 0.00 | 26 | 1006.1 |
| 20260504213053 | 76 | 310 | 6.0 | 11.0 | 0.00 | 0.00 | 0.00 | 27 | 1006.2 |
| 20260504212538 | 76 | 275 | 2.0 | 13.0 | 0.00 | 0.00 | 0.00 | 26 | 1006.4 |
| 20260504212039 | 76 | 291 | 5.0 | 14.0 | 0.00 | 0.00 | 0.00 | 26 | 1006.4 |
| 20260504211554 | 76 | 240 | 8.0 | 14.0 | 0.00 | 0.00 | 0.00 | 27 | 1006.5 |
| 20260504211038 | 76 | 195 | 4.0 | 12.0 | 0.00 | 0.00 | 0.00 | 28 | 1006.6 |
| 20260504210537 | 76 | 175 | 7.0 | 12.0 | 0.00 | 0.00 | 0.00 | 27 | 1006.7 |
| 20260504210050 | 76 | 237 | 5.0 | 15.0 | 0.00 | 0.00 | 0.00 | 28 | 1006.7 |
| 20260504205541 | 76 | 115 | 5.0 | 15.0 | 0.00 | 0.00 | 0.00 | 27 | 1006.7 |
| 20260504205037 | 76 | 259 | 7.0 | 15.0 | 0.00 | 0.00 | 0.00 | 27 | 1006.8 |
| 20260504204551 | 76 | 285 | 4.0 | 13.0 | 0.00 | 0.00 | 0.00 | 28 | 1006.8 |
| 20260504204038 | 76 | 338 | 8.0 | 13.0 | 0.00 | 0.00 | 0.00 | 28 | 1006.9 |
| 20260504203538 | 76 | 242 | 5.0 | 11.0 | 0.00 | 0.00 | 0.00 | 27 | 1006.9 |
| 20260504203049 | 76 | 277 | 5.0 | 14.0 | 0.00 | 0.00 | 0.00 | 28 | 1007.0 |
| 20260504202537 | 76 | 198 | 5.0 | 14.0 | 0.00 | 0.00 | 0.00 | 27 | 1007.0 |
| 20260504202038 | 76 | 238 | 7.0 | 14.0 | 0.00 | 0.00 | 0.00 | 29 | 1007.0 |
| 20260504201551 | 76 | 273 | 8.0 | 14.0 | 0.00 | 0.00 | 0.00 | 27 | 1007.0 |
| 20260504201041 | 76 | 317 | 7.0 | 15.0 | 0.00 | 0.00 | 0.00 | 28 | 1007.0 |
| 20260504200540 | 76 | 267 | 5.0 | 15.0 | 0.00 | 0.00 | 0.00 | 29 | 1007.1 |
| 20260504200059 | 76 | 254 | 8.0 | 14.0 | 0.00 | 0.00 | 0.00 | 29 | 1007.1 |
| 20260504195538 | 76 | 240 | 7.0 | 25.0 | 0.00 | 0.00 | 0.00 | 28 | 1007.1 |
| 20260504195037 | 76 | 225 | 9.0 | 25.0 | 0.00 | 0.00 | 0.00 | 30 | 1007.1 |
| 20260504194553 | 75 | 243 | 5.0 | 12.0 | 0.00 | 0.00 | 0.00 | 32 | 1006.8 |
| 20260504194038 | 76 | 297 | 3.0 | 12.0 | 0.00 | 0.00 | 0.00 | 30 | 1007.3 |
| 20260504193538 | 76 | 251 | 6.0 | 12.0 | 0.00 | 0.00 | 0.00 | 31 | 1007.4 |
| 20260504193054 | 76 | 242 | 5.0 | 12.0 | 0.00 | 0.00 | 0.00 | 31 | 1007.4 |
| 20260504192537 | 75 | 236 | 4.0 | 12.0 | 0.00 | 0.00 | 0.00 | 31 | 1007.4 |
| 20260504192038 | 75 | 259 | 4.0 | 12.0 | 0.00 | 0.00 | 0.00 | 32 | 1007.5 |
| 20260504191556 | 75 | 259 | 3.0 | 11.0 | 0.00 | 0.00 | 0.00 | 31 | 1007.6 |
| 20260504191038 | 75 | 238 | 6.0 | 11.0 | 0.00 | 0.00 | 0.00 | 29 | 1007.6 |
| 20260504190539 | 75 | 252 | 1.0 | 9.0 | 0.00 | 0.00 | 0.00 | 30 | 1007.6 |
| 20260504190107 | 75 | 351 | 5.0 | 9.0 | 0.00 | 0.00 | 0.00 | 29 | 1007.7 |
| 20260504185543 | 76 | 270 | 4.0 | 9.0 | 0.00 | 0.00 | 0.00 | 30 | 1007.8 |
| 20260504185038 | 75 | 202 | 2.0 | 5.0 | 0.00 | 0.00 | 0.00 | 29 | 1007.8 |
| 20260504184602 | 75 | 0 | 1.0 | 10.0 | 0.00 | 0.00 | 0.00 | 30 | 1007.8 |
| 20260504184038 | 75 | 0 | 1.0 | 10.0 | 0.00 | 0.00 | 0.00 | 32 | 1007.8 |
| 20260504183538 | 76 | 263 | 5.0 | 10.0 | 0.00 | 0.00 | 0.00 | 30 | 1007.9 |
| 20260504183056 | 76 | 234 | 4.0 | 9.0 | 0.00 | 0.00 | 0.00 | 30 | 1008.0 |
| 20260504182537 | 76 | 211 | 3.0 | 10.0 | 0.00 | 0.00 | 0.00 | 30 | 1008.0 |
| 20260504182042 | 76 | 200 | 5.0 | 10.0 | 0.00 | 0.00 | 0.00 | 31 | 1008.1 |
| 20260504181554 | 76 | 0 | 3.0 | 10.0 | 0.00 | 0.00 | 0.00 | 33 | 1008.2 |
| 20260504181038 | 75 | 213 | 2.0 | 10.0 | 0.00 | 0.00 | 0.00 | 31 | 1008.2 |
| 20260504180540 | 75 | 123 | 4.0 | 10.0 | 0.00 | 0.00 | 0.00 | 33 | 1008.3 |
| 20260504180054 | 75 | 167 | 2.0 | 8.0 | 0.00 | 0.00 | 0.00 | 31 | 1008.5 |
| 20260504175538 | 75 | 0 | 2.0 | 8.0 | 0.00 | 0.00 | 0.00 | 31 | 1008.5 |
| 20260504175038 | 75 | 128 | 4.0 | 8.0 | 0.00 | 0.00 | 0.00 | 32 | 1008.6 |
| 20260504174546 | 74 | 43 | 2.0 | 11.0 | 0.00 | 0.00 | 0.00 | 33 | 1008.6 |
| 20260504174038 | 74 | 153 | 3.0 | 11.0 | 0.00 | 0.00 | 0.00 | 32 | 1008.6 |
| 20260504173538 | 74 | 155 | 5.0 | 11.0 | 0.00 | 0.00 | 0.00 | 31 | 1008.7 |
| 20260504173047 | 74 | 215 | 0.0 | 10.0 | 0.00 | 0.00 | 0.00 | 32 | 1008.7 |
| 20260504172538 | 74 | 109 | 4.0 | 10.0 | 0.00 | 0.00 | 0.00 | 33 | 1008.7 |
| 20260504172038 | 74 | 180 | 2.0 | 8.0 | 0.00 | 0.00 | 0.00 | 35 | 1008.7 |
| 20260504171554 | 73 | 157 | 3.0 | 8.0 | 0.00 | 0.00 | 0.00 | 34 | 1008.8 |
| 20260504171040 | 73 | 188 | 3.0 | 13.0 | 0.00 | 0.00 | 0.00 | 35 | 1008.8 |
| 20260504170539 | 73 | 132 | 7.0 | 13.0 | 0.00 | 0.00 | 0.00 | 34 | 1008.8 |
| 20260504151037 | 67 | 140 | 6.0 | 9.0 | 0.00 | 0.00 | 0.00 | 44 | 1009.3 |
| 20260504150537 | 66 | 109 | 4.0 | 9.0 | 0.00 | 0.00 | 0.00 | 45 | 1009.4 |
| 20260504141037 | 59 | 140 | 3.0 | 7.0 | 0.00 | 0.00 | 0.00 | 55 | 1009.4 |
| 20260504140537 | 58 | 145 | 3.0 | 7.0 | 0.00 | 0.00 | 0.00 | 56 | 1009.4 |
| 20260504130538 | 47 | 360 | 3.0 | 8.0 | 0.00 | 0.00 | 0.00 | 62 | 1009.5 |
| 20260504110541 | 49 | 57 | 3.0 | 7.0 | 0.00 | 0.00 | 0.00 | 60 | 1009.4 |
| 20260504100539 | 51 | 0 | 0.0 | 3.0 | 0.00 | 0.00 | 0.00 | 59 | 1009.1 |
| 20260504081553 | 53 | 360 | 1.0 | 3.0 | 0.00 | 0.00 | 0.00 | 47 | 1008.2 |
| 20260504081039 | 53 | 274 | 2.0 | 6.0 | 0.00 | 0.00 | 0.00 | 47 | 1008.2 |
| 20260504080539 | 53 | 360 | 3.0 | 6.0 | 0.00 | 0.00 | 0.00 | 45 | 1008.2 |
| 20260504050539 | 54 | 62 | 2.0 | 3.0 | 0.00 | 0.00 | 0.00 | 48 | 1008.8 |
| 20260504045538 | 55 | 45 | 2.0 | 3.0 | 0.00 | 0.00 | 0.00 | 49 | 1008.8 |
| 20260504045037 | 55 | 44 | 2.0 | 4.0 | 0.00 | 0.00 | 0.00 | 48 | 1008.9 |
| 20260504044553 | 55 | 44 | 2.0 | 4.0 | 0.00 | 0.00 | 0.00 | 49 | 1009.0 |
| 20260504044038 | 56 | 43 | 2.0 | 5.0 | 0.00 | 0.00 | 0.00 | 48 | 1008.9 |
| 20260504043538 | 56 | 43 | 3.0 | 5.0 | 0.00 | 0.00 | 0.00 | 47 | 1008.9 |
| 20260504043046 | 57 | 44 | 3.0 | 5.0 | 0.00 | 0.00 | 0.00 | 45 | 1008.9 |
| 20260504042538 | 57 | 42 | 3.0 | 5.0 | 0.00 | 0.00 | 0.00 | 45 | 1008.8 |
| 20260504042037 | 58 | 37 | 3.0 | 4.0 | 0.00 | 0.00 | 0.00 | 41 | 1008.9 |
| 20260504041546 | 58 | 28 | 3.0 | 5.0 | 0.00 | 0.00 | 0.00 | 43 | 1009.0 |
| 20260504041037 | 59 | 26 | 3.0 | 5.0 | 0.00 | 0.00 | 0.00 | 44 | 1009.0 |
| 20260504040538 | 59 | 13 | 3.0 | 4.0 | 0.00 | 0.00 | 0.00 | 41 | 1008.9 |
| 20260504040104 | 60 | 47 | 2.0 | 4.0 | 0.00 | 0.00 | 0.00 | 41 | 1009.0 |
| 20260504035540 | 61 | 47 | 2.0 | 4.0 | 0.00 | 0.00 | 0.00 | 41 | 1009.0 |
| 20260504035037 | 61 | 47 | 2.0 | 4.0 | 0.00 | 0.00 | 0.00 | 35 | 1009.0 |
| 20260504034557 | 62 | 49 | 3.0 | 4.0 | 0.00 | 0.00 | 0.00 | 34 | 1009.0 |
| 20260504034038 | 62 | 90 | 2.0 | 4.0 | 0.00 | 0.00 | 0.00 | 37 | 1009.0 |
| 20260504033538 | 63 | 45 | 2.0 | 4.0 | 0.00 | 0.00 | 0.00 | 38 | 1009.0 |
| 20260504033114 | 63 | 22 | 3.0 | 4.0 | 0.00 | 0.00 | 0.00 | 34 | 1009.0 |
| 20260504032538 | 63 | 17 | 2.0 | 4.0 | 0.00 | 0.00 | 0.00 | 33 | 1009.0 |
| 20260504032038 | 64 | 360 | 2.0 | 4.0 | 0.00 | 0.00 | 0.00 | 31 | 1009.1 |
| 20260504031546 | 64 | 26 | 3.0 | 4.0 | 0.00 | 0.00 | 0.00 | 31 | 1009.0 |
| 20260504031038 | 64 | 22 | 3.0 | 4.0 | 0.00 | 0.00 | 0.00 | 30 | 1009.0 |
| 20260504030537 | 65 | 22 | 3.0 | 5.0 | 0.00 | 0.00 | 0.00 | 30 | 1009.1 |
| 20260504030049 | 65 | 13 | 3.0 | 5.0 | 0.00 | 0.00 | 0.00 | 30 | 1009.0 |
| 20260504025537 | 66 | 360 | 3.0 | 5.0 | 0.00 | 0.00 | 0.00 | 31 | 1009.0 |
| 20260504025037 | 66 | 9 | 3.0 | 5.0 | 0.00 | 0.00 | 0.00 | 29 | 1009.0 |
| 20260504024547 | 67 | 360 | 3.0 | 5.0 | 0.00 | 0.00 | 0.00 | 28 | 1009.0 |
| 20260504024040 | 67 | 352 | 3.0 | 5.0 | 0.00 | 0.00 | 0.00 | 29 | 1009.0 |
| 20260504023539 | 67 | 360 | 3.0 | 5.0 | 0.00 | 0.00 | 0.00 | 28 | 1009.0 |
| 20260504023100 | 68 | 360 | 3.0 | 8.0 | 0.00 | 0.00 | 0.00 | 27 | 1009.0 |
| 20260504022539 | 68 | 360 | 3.0 | 8.0 | 0.00 | 0.00 | 0.00 | 28 | 1009.0 |
| 20260504022037 | 69 | 360 | 4.0 | 9.0 | 0.00 | 0.00 | 0.00 | 27 | 1009.1 |
| 20260504021546 | 70 | 332 | 4.0 | 9.0 | 0.00 | 0.00 | 0.00 | 28 | 1009.1 |
| 20260504021037 | 70 | 320 | 3.0 | 8.0 | 0.00 | 0.00 | 0.00 | 26 | 1009.0 |
| 20260504020540 | 71 | 303 | 3.0 | 9.0 | 0.00 | 0.00 | 0.00 | 27 | 1009.0 |
| 20260504020057 | 71 | 339 | 4.0 | 9.0 | 0.00 | 0.00 | 0.00 | 25 | 1009.1 |
| 20260504015538 | 71 | 331 | 4.0 | 9.0 | 0.00 | 0.00 | 0.00 | 25 | 1009.1 |
| 20260504015039 | 72 | 318 | 3.0 | 8.0 | 0.00 | 0.00 | 0.00 | 25 | 1009.1 |
| 20260504014553 | 72 | 316 | 3.0 | 8.0 | 0.00 | 0.00 | 0.00 | 25 | 1009.2 |